This demonstration page uses our WeatherBlox Daily Observations layout. Learn more.

Left ArrowRight Arrow

47.50024, -111.30081

Hourly Observations for July 4, 2020

Temp ( °F °C ) Dew Point ( °F °C ) Humidity (%) Winds ( mph kmh ) Pressure ( in mb ) Visibility ( mi km ) Precip ( " mm )
12:53 am 00:53 Clear 55 12.8 47 8.3 74 74 WSW 3 6 29.98 1015 10 16 0.00 0.00
1:53 am 01:53 Clear 55 12.8 48 8.9 77 77 S 6 9 29.96 1015 10 16 0.00 0.00
2:53 am 02:53 Clear 53 11.7 48 8.9 83 83 SW 5 7 29.95 1014 10 16 0.00 0.00
3:53 am 03:53 Clear 55 12.8 47 8.3 74 74 S 10 17 29.94 1014 10 16 0.00 0.00
4:53 am 04:53 Clear 53 11.7 46 7.8 77 77 SSW 10 17 29.94 1014 10 16 0.00 0.00
5:53 am 05:53 Mostly Sunny 54 12.2 47 8.3 77 77 SW 8 13 29.96 1015 10 16 0.00 0.00
6:53 am 06:53 Sunny 55 12.8 48 8.9 77 77 Calm 29.98 1015 10 16 0.00 0.00
7:53 am 07:53 Sunny 62 16.7 50 10 65 65 Calm 30.02 1017 10 16 0.00 0.00
8:53 am 08:53 Sunny 67 19.4 51 10.6 57 57 S 6 9 29.99 1016 10 16 0.00 0.00
9:53 am 09:53 Sunny 71 21.7 51 10.6 49 49 SW 5 7 29.98 1015 10 16 0.00 0.00
10:53 am 10:53 Sunny 74 23.3 51 10.6 45 45 E 3 6 29.97 1015 10 16 0.00 0.00
11:53 am 11:53 Sunny 76 24.4 48 8.9 37 37 ESE 6 9 29.96 1015 10 16 0.00 0.00
12:53 pm 12:53 Sunny 77 25 53 11.7 43 43 SE 9 15 29.96 1014 10 16 0.00 0.00
1:53 pm 13:53 Sunny 78 25.6 55 12.8 45 45 E 12 19 29.92 1013 10 16 0.00 0.00
2:53 pm 14:53 Sunny 79 26.1 54 12.2 42 42 VRB 3 6 29.91 1013 10 16 0.00 0.00
3:53 pm 15:53 Mostly Sunny 76 24.4 41 5 29 29 SW 10 17 29.89 1012 10 16 0.00 0.00
4:30 pm 16:30 Mostly Cloudy with Nearby Thunderstorms 75 23.9 38 3.3 26 26 SSW 15 24 29.75 1008 10 16 0.00 0.00
4:53 pm 16:53 Partly Cloudy with Nearby Thunderstorms 73 22.8 44 6.7 35 35 SSW 12 19 29.93 1014 10 16 0.00 0.00
5:05 pm 17:05 Mostly Sunny 71 21.7 42 5.6 35 35 SE 17 28 29.80 1009 10 16 0.00 0.00
5:13 pm 17:13 Sunny 70 21.1 44 6.7 39 39 SE 10 17 29.81 1009 10 16 0.00 0.00
5:53 pm 17:53 Mostly Cloudy 70 21.1 44 6.7 39 39 SSW 18 30 29.95 1014 10 16 0.00 0.00
6:05 pm 18:05 Mostly Cloudy with Light Rain 66 18.9 46 7.8 49 49 SSW 22 35 29.86 1011 10 16 0.00 0.00
6:53 pm 18:53 Mostly Cloudy 68 20 44 6.7 42 42 S 13 20 29.92 1013 10 16 0.00 0.00
7:53 pm 19:53 Sunny 66 18.9 45 7.2 47 47 SSW 16 26 29.92 1013 10 16 0.00 0.00
8:53 pm 20:53 Sunny 66 18.9 46 7.8 49 49 S 14 22 29.91 1013 10 16 0.00 0.00
9:53 pm 21:53 Clear 65 18.3 46 7.8 51 51 SSW 15 24 29.93 1014 10 16 0.00 0.00
10:53 pm 22:53 Mostly Cloudy 63 17.2 46 7.8 54 54 SW 9 15 29.93 1014 10 16 0.00 0.00
11:53 pm 23:53 Partly Cloudy 59 15 49 9.4 69 69 W 7 11 29.95 1014 10 16 0.00 0.00

Powered by AerisWeather